User: anonymous   Login
Location: Cronhütte
(48.9135°N, 9.6869°E)
Time: 19:12:27
(UTC+00:00)
Language:

Cosmos 676 Rocket - Orbit

View from above orbital plane
View from above orbital plane
View from above satellite
View from above satellite

Ground track
Ground track

The orbit data is extracted from the following two-line orbital elements,

1 07434U 74071B   24199.55811322  .00000676  00000-0  23396-3 0  9994
2 07434  74.0463 140.7837 0019689 135.0719 225.2032 14.37492842608018
Epoch (UTC): 17 July 2024 13:23:40
Eccentricity: 0.0019689
inclination: 74.0463°
perigee height: 753 km
apogee height: 781 km
right ascension of ascending node: 140.7837°
argument of perigee: 135.0719°
revolutions per day: 14.37492842
mean anomaly at epoch: 225.2032°
orbit number at epoch: 60801

The dashed part of the orbit path shows where the satellite is in the earth's shadow,  

DLR